Regional Weather Roundup
Issued by NWS Charleston, WV

Home | Current Version | Previous Version | Graphics & Text | Print | Product List | Glossary On
Versions: 1 2 3 4 5 6 7 8 9 10 11 12 13 14 15 16 17 18 19 20 21 22 23 24 25 26 27 28 29 30 31 32 33 34 35 36 37 38 39 40 41 42 43 44 45 46 47 48 49 50
000
ASUS41 KRLX 040810
RWRRLX
West Virginia Regional Weather Roundup
National Weather Service Charleston WV
300 AM EST WED MAR 04 2015

Note: "fair" indicates few or no clouds below 12,000 feet with no
significant weather and/or obstructions to visibility.

WVZ003-040900-
Northern Panhandle of West Virginia

CITY           SKY/WX    TMP DP  RH WIND       PRES   REMARKS
WHEELING       LGT RAIN  39  36  89 W9        29.81F
$$

WVZ009-040900-
Northwest West Virginia

CITY           SKY/WX    TMP DP  RH WIND       PRES   REMARKS
PARKERSBURG    LGT RAIN  42  40  92 W8        29.90R
$$

WVZ006-040900-
Western West Virginia

CITY           SKY/WX    TMP DP  RH WIND       PRES   REMARKS
HUNTINGTON     LGT RAIN  50  49  96 NW5       29.86R
$$

WVZ015-040900-
West Central West Virginia

CITY           SKY/WX    TMP DP  RH WIND       PRES   REMARKS
CHARLESTON     RAIN      53  51  93 VRB6G16   29.86R FOG
$$

WVZ022-031-040900-
North Central West Virginia

CITY           SKY/WX    TMP DP  RH WIND       PRES   REMARKS
CLARKSBURG     LGT RAIN  48  47  96 W8        29.83R
MORGANTOWN     LGT RAIN  48  43  82 W8        29.83R
$$

WVZ025-035-042-045-040900-
Southern West Virginia

CITY           SKY/WX    TMP DP  RH WIND       PRES   REMARKS
BECKLEY        LGT RAIN  52  50  93 SW18G30   29.85S
LOGAN          LGT RAIN  54  54 100 NW8G18    29.84R
BLUEFIELD      CLOUDY    59  52  77 W24G31    29.88F
LEWISBURG      RAIN      37  36  96 CALM      29.85F
$$

WVZ047-040900-
Northern Mountains of West Virginia

CITY           SKY/WX    TMP DP  RH WIND       PRES   REMARKS
ELKINS         LGT RAIN  50  48  93 W12G18    29.84R
$$

WVZ052-040900-
Eastern Panhandle of West Virginia

CITY           SKY/WX    TMP DP  RH WIND       PRES   REMARKS
MARTINSBURG    CLOUDY    37  33  85 W5        29.80S FOG
PETERSBURG     DRIZZLE   45  45 100 SE7       29.80S
$$


USA.gov is the U.S. government's official web portal to all federal, state and local government web resources and services.